Weather History for KEGV - March, 2013

Change the Weather History Date:

Tuesday, March 5, 2013

  Actual Average Record
Temperature  
Mean Temperature 24 °F -  
Max Temperature 28 °F 38 °F 43 °F (1992)
Min Temperature 21 °F 17 °F -22 °F (2015)
Degree Days  
Heating Degree Days 40    
Moisture  
Dew Point 15 °F    
Average Humidity 72    
Maximum Humidity 100    
Minimum Humidity 47    
Precipitation  
Precipitation 0.00 in - - ()
Sea Level Pressure  
Sea Level Pressure 30.05 in    
Wind  
Wind Speed 8 mph (NE)    
Max Wind Speed 17 mph    
Max Gust Speed 23 mph    
Visibility 10 miles    
Events      
Averages and records for this station are not official NWS values.
T = Trace of Precipitation, MM = Missing Value Source: NWS Daily Summary

Daily Weather History Graph

Daily Weather History Graph

Search for Another Location

Airport or City:

Trip Planner

Search our weather history database for the weather conditions in past years. The results will help you decide how hot, cold, wet, or windy it might be!

Date:

Astronomy

Mar. 05, 2013 Rise Set
Actual Time 6:28 AM CST 5:49 PM CST
Civil Twilight 5:58 AM CST 6:19 PM CST
Nautical Twilight 5:23 AM CST 6:54 PM CST
Astronomical Twilight 4:49 AM CST 7:28 PM CST
Moon 1:54 AM CST (3/5) 11:14 AM CST (3/5)
Length of Visible Light 12h 21m
Length of Day
11h 21m
Last Quarter, 40% of the Moon is Illuminated
Mar 5
Last Quarter
Mar 11
New
Mar 19
First Quarter
Mar 27
Full
Apr 2
Last Quarter

Hourly Weather History & Observations

Time (CST) Temp. Windchill Dew Point Humidity Pressure Visibility Wind Dir Wind Speed Gust Speed Precip Events Conditions
12:35 AM 21.2 °F 11.7 °F 8.6 °F 58% 30.07 in 10.0 mi East 8.1 mph - N/A   Overcast
12:55 AM 21.2 °F 12.6 °F 8.6 °F 58% 30.08 in 10.0 mi ESE 6.9 mph - N/A   Overcast
1:15 AM 21.2 °F 13.6 °F 10.4 °F 63% 30.08 in 10.0 mi ESE 5.8 mph - N/A   Overcast
1:35 AM 21.2 °F 13.6 °F 10.4 °F 63% 30.07 in 10.0 mi East 5.8 mph - N/A   Overcast
1:55 AM 21.2 °F 13.6 °F 12.2 °F 68% 30.07 in 10.0 mi ESE 5.8 mph - N/A   Overcast
2:15 AM 21.2 °F 12.6 °F 12.2 °F 68% 30.07 in 10.0 mi East 6.9 mph - N/A   Overcast
2:35 AM 21.2 °F 12.6 °F 14.0 °F 74% 30.06 in 10.0 mi East 6.9 mph - N/A   Overcast
2:55 AM 21.2 °F 12.6 °F 14.0 °F 74% 30.05 in 10.0 mi East 6.9 mph - N/A   Overcast
3:15 AM 21.2 °F 11.7 °F 14.0 °F 74% 30.04 in 10.0 mi East 8.1 mph - N/A   Overcast
3:35 AM 21.2 °F 12.6 °F 15.8 °F 80% 30.04 in 10.0 mi East 6.9 mph - N/A   Overcast
3:55 AM 21.2 °F 13.6 °F 15.8 °F 80% 30.04 in 10.0 mi East 5.8 mph - N/A   Overcast
4:35 AM 21.2 °F 9.5 °F 14.0 °F 74% 30.02 in 10.0 mi East 11.5 mph 16.1 mph N/A   Overcast
4:55 AM 21.2 °F 11.7 °F 14.0 °F 74% 30.02 in 10.0 mi East 8.1 mph - N/A   Overcast
5:15 AM 21.2 °F 11.7 °F 14.0 °F 74% 30.01 in 10.0 mi East 8.1 mph - N/A   Overcast
5:35 AM 21.2 °F 11.7 °F 12.2 °F 68% 30.01 in 10.0 mi East 8.1 mph - N/A   Overcast
5:55 AM 21.2 °F 10.9 °F 12.2 °F 68% 30.01 in 10.0 mi East 9.2 mph - N/A   Overcast
6:55 AM 21.2 °F 11.7 °F 8.6 °F 58% 30.01 in 10.0 mi East 8.1 mph - N/A   Overcast
7:15 AM 21.2 °F 11.7 °F 10.4 °F 63% 30.01 in 10.0 mi East 8.1 mph - N/A   Overcast
7:35 AM 21.2 °F 11.7 °F 10.4 °F 63% 30.01 in 10.0 mi East 8.1 mph - N/A   Overcast
7:55 AM 21.2 °F 11.7 °F 10.4 °F 63% 30.01 in 10.0 mi East 8.1 mph - N/A   Overcast
8:15 AM 23.0 °F 15.8 °F 10.4 °F 59% 30.01 in 10.0 mi East 5.8 mph - N/A   Overcast
8:35 AM 23.0 °F 13.9 °F 10.4 °F 59% 30.02 in 10.0 mi East 8.1 mph - N/A   Overcast
8:55 AM 23.0 °F 13.9 °F 8.6 °F 54% 30.02 in 10.0 mi ENE 8.1 mph - N/A   Overcast
9:15 AM 23.0 °F 11.1 °F 8.6 °F 54% 30.02 in 10.0 mi East 12.7 mph - N/A   Overcast
9:35 AM 23.0 °F 11.1 °F 8.6 °F 54% 30.03 in 10.0 mi East 12.7 mph - N/A   Mostly Cloudy
9:55 AM 24.8 °F 16.1 °F 10.4 °F 54% 30.03 in 10.0 mi ENE 8.1 mph - N/A   Scattered Clouds
10:15 AM 24.8 °F 19.1 °F 10.4 °F 54% 30.04 in 10.0 mi ENE 4.6 mph - N/A   Clear
10:35 AM 26.6 °F 17.5 °F 10.4 °F 51% 30.04 in 10.0 mi East 9.2 mph - N/A   Clear
10:55 AM 26.6 °F 19.1 °F 10.4 °F 51% 30.04 in 10.0 mi East 6.9 mph - N/A   Clear
11:15 AM 26.6 °F 19.1 °F 8.6 °F 47% 30.04 in 10.0 mi ENE 6.9 mph - N/A   Clear
11:35 AM 28.4 °F 23.3 °F 10.4 °F 47% 30.04 in 10.0 mi ENE 4.6 mph - N/A   Clear
11:55 AM 28.4 °F - 10.4 °F 47% 30.04 in 10.0 mi Calm Calm - N/A   Scattered Clouds
12:15 PM 28.4 °F 20.4 °F 10.4 °F 47% 30.03 in 10.0 mi ENE 8.1 mph - N/A   Scattered Clouds
12:35 PM 28.4 °F 21.2 °F 10.4 °F 47% 30.02 in 10.0 mi ENE 6.9 mph - N/A   Clear
12:55 PM 28.4 °F 22.2 °F 10.4 °F 47% 30.01 in 10.0 mi North 5.8 mph 9.2 mph N/A   Clear
1:15 PM 28.4 °F 18.5 °F 12.2 °F 51% 30.01 in 10.0 mi NNE 11.5 mph 16.1 mph N/A   Clear
1:35 PM 28.4 °F 18.5 °F 14.0 °F 55% 30.00 in 10.0 mi NE 11.5 mph - N/A   Clear
1:55 PM 28.4 °F 18.5 °F 15.8 °F 59% 29.99 in 10.0 mi NE 11.5 mph 17.3 mph N/A   Clear
2:15 PM 28.4 °F 18.0 °F 17.6 °F 64% 29.99 in 10.0 mi NE 12.7 mph 19.6 mph N/A   Scattered Clouds
2:35 PM 28.4 °F 16.6 °F 17.6 °F 64% 29.99 in 10.0 mi NE 16.1 mph 19.6 mph N/A   Overcast
2:55 PM 28.4 °F 17.5 °F 17.6 °F 64% 30.00 in 10.0 mi NNE 13.8 mph 20.7 mph N/A   Overcast
3:15 PM 26.6 °F 16.2 °F 19.4 °F 74% 30.01 in 10.0 mi North 11.5 mph 23.0 mph N/A   Overcast
3:35 PM 26.6 °F 16.8 °F 19.4 °F 74% 30.02 in 10.0 mi North 10.4 mph 23.0 mph N/A   Overcast
3:55 PM 24.8 °F 12.9 °F 19.4 °F 80% 30.02 in 10.0 mi North 13.8 mph - N/A   Overcast
4:15 PM 24.8 °F 15.3 °F 19.4 °F 80% 30.03 in 10.0 mi North 9.2 mph - N/A   Overcast
4:35 PM 24.8 °F 14.0 °F 19.4 °F 80% 30.04 in 10.0 mi NNE 11.5 mph 17.3 mph N/A   Overcast
4:55 PM 23.0 °F 12.4 °F 19.4 °F 86% 30.05 in 10.0 mi NNE 10.4 mph 20.7 mph N/A   Overcast
5:15 PM 23.0 °F 11.7 °F 19.4 °F 86% 30.06 in 10.0 mi NNE 11.5 mph - N/A   Overcast
5:35 PM 23.0 °F 11.7 °F 19.4 °F 86% 30.06 in 10.0 mi North 11.5 mph 19.6 mph N/A   Overcast
5:55 PM 23.0 °F 11.7 °F 19.4 °F 86% 30.06 in 10.0 mi NNE 11.5 mph - N/A   Overcast
6:15 PM 23.0 °F 13.1 °F 19.4 °F 86% 30.08 in 10.0 mi North 9.2 mph - N/A   Overcast
6:35 PM 23.0 °F 13.9 °F 19.4 °F 86% 30.08 in 10.0 mi NNE 8.1 mph - N/A   Overcast
6:55 PM 23.0 °F 11.1 °F 19.4 °F 86% 30.09 in 10.0 mi NNE 12.7 mph 18.4 mph N/A   Overcast
7:15 PM 23.0 °F 11.1 °F 19.4 °F 86% 30.09 in 10.0 mi NNE 12.7 mph - N/A   Overcast
7:35 PM 23.0 °F 12.4 °F 19.4 °F 86% 30.09 in 10.0 mi NNE 10.4 mph 16.1 mph N/A   Overcast
7:55 PM 21.2 °F 8.9 °F 19.4 °F 93% 30.10 in 10.0 mi NNE 12.7 mph - N/A   Overcast
8:15 PM 21.2 °F 6.8 °F 19.4 °F 93% 30.10 in 10.0 mi NE 17.3 mph 21.9 mph N/A   Overcast
8:35 PM 21.2 °F 9.5 °F 17.6 °F 86% 30.10 in 10.0 mi NE 11.5 mph - N/A   Overcast
8:55 PM 21.2 °F 7.8 °F 17.6 °F 86% 30.10 in 10.0 mi NE 15.0 mph 20.7 mph N/A   Overcast
9:15 PM 21.2 °F 9.5 °F 17.6 °F 86% 30.10 in 10.0 mi NE 11.5 mph 16.1 mph N/A   Overcast
9:35 PM 21.2 °F 11.7 °F 19.4 °F 93% 30.11 in 5.0 mi NNE 8.1 mph - N/A   Overcast
9:55 PM 21.2 °F 11.7 °F 21.2 °F 100% 30.11 in 7.0 mi NNE 8.1 mph - N/A   Overcast
10:15 PM 21.2 °F 11.7 °F 21.2 °F 100% 30.11 in 5.0 mi NNE 8.1 mph - N/A   Overcast
10:35 PM 21.2 °F 13.6 °F 21.2 °F 100% 30.12 in 5.0 mi North 5.8 mph - N/A   Overcast
10:55 PM 21.2 °F 12.6 °F 21.2 °F 100% 30.12 in 7.0 mi North 6.9 mph - N/A   Overcast
11:15 PM 21.2 °F 12.6 °F 21.2 °F 100% 30.13 in 5.0 mi North 6.9 mph - N/A   Overcast
11:35 PM 21.2 °F 10.9 °F 21.2 °F 100% 30.13 in 4.0 mi North 9.2 mph - N/A   Overcast
11:55 PM 21.2 °F 11.7 °F 21.2 °F 100% 30.13 in 5.0 mi North 8.1 mph - N/A   Overcast